Starlink 31989

operational
NORAD ID: 59959 Int'l Des: 2024-107 Owner: SPXS Country: US Constellation: starlink
LEOCIRCULAR

About Starlink 31989

Description loading...

Live Position

Loading 3D Globe...

Upcoming Passes

Altitude History

Altitude vs Time

uPlot chart will show altitude changes over time

Two-Line Element Set

1 59959U 24107Q 25306.29640097 .00001230 00000-0 53681-4 0 9997
2 59959 53.1605 297.1454 0001381 99.7601 260.3556 15.30187183 80299
Epoch: Nov 2, 2025 • Age: 25 hours

Current Status

Altitude 479.6 km
Velocity 7.63 km/s
Sub-Earth Point 46.79°N, 174.69°E
Launch Date Jun 5, 2024
Age 1.4 years
Type internet

Technical Details

Classification Payload
Mass 730.00 kg
Dry Mass 700.00 kg
Total Mass 730.00 kg
Length 0.30 m
Diameter 4.10 m
Span 29.00 m
Shape Box + pan
Manufacturer SPXS
Bus Type Starlink V2M
Phase Status In Orbit
Owner/State SPXS/US

Large Constellations

Loading constellations...